Regional Weather Roundup
Issued by NWS

Home | Current Version | Previous Version | Graphics & Text | Print | Product List | Glossary On
Versions: 1 2 3 4 5 6 7 8 9 10 11 12 13 14 15 16 17 18 19 20 21 22 23 24 25 26 27 28 29 30 31 32 33 34 35 36 37 38 39 40 41 42 43 44 45 46 47 48 49 50
000
ASUS43 KBIS 051210
RWRND

NORTH DAKOTA REGIONAL WEATHER ROUNDUP
NATIONAL WEATHER SERVICE BISMARCK ND
600 AM CST MON DEC 05 2016

NOTE: "FAIR" INDICATES FEW OR NO CLOUDS BELOW 12,000 FEET WITH NO
SIGNIFICANT WEATHER AND/OR OBSTRUCTIONS TO VISIBILITY.


NDZ001>003-009>011-017-051300-
NORTHWEST NORTH DAKOTA

CITY           SKY/WX    TMP DP  RH WIND       PRES   REMARKS
WILLISTON      CLOUDY    30  27  88 W10       29.51R
6HR MIN TEMP:  24; 6HR MAX TEMP:  30; 6HR PCP:  0.05;

MINOT          CLOUDY    20  17  88 CALM      29.53R
MINOT AFB      FLURRIES  19  18  93 CALM      29.53R
$$

NDZ018>021-031>035-040>046-051300-
SOUTHWEST NORTH DAKOTA

CITY           SKY/WX    TMP DP  RH WIND       PRES   REMARKS
BISMARCK       MOCLDY    17  15  92 W8        29.55R WCI   7
6HR MIN TEMP:  15; 6HR MAX TEMP:  20;

DICKINSON      CLOUDY    31  27  85 W17       29.49S WCI  19
GARRISON         N/A     28  24  85 S9        29.50F WCI  19
6HR MIN TEMP:  17; 6HR MAX TEMP:  29;

HETTINGER ARPT LGT SNOW  32  30  92 NW20      29.52S FOG
$$

NDZ004>008-012>016-024-026-027-054-051300-
NORTHEAST NORTH DAKOTA

CITY           SKY/WX    TMP DP  RH WIND       PRES   REMARKS
GRAND FORKS    CLOUDY    26  24  92 E6        29.69S FOG     WCI  19
GRND FRKS AFB  CLOUDY    25  24  96 E6        29.68F FOG     WCI  18
DEVILS LAKE    CLOUDY    23  21  92 E10       29.61S FOG     WCI  12
$$

NDZ022-023-025-028>030-036>039-047>053-051300-
SOUTHEAST NORTH DAKOTA

CITY           SKY/WX    TMP DP  RH WIND       PRES   REMARKS
FARGO          CLEAR     22  19  89 SE5       29.68F WCI  16
6HR MIN TEMP:  20; 6HR MAX TEMP:  24;

JAMESTOWN      CLEAR     23  21  92 E7        29.58F WCI  15
$$




USA.gov is the U.S. government's official web portal to all federal, state and local government web resources and services.